Time,TemperatureF,DewpointF,PressureIn,WindDirection,WindDirectionDegrees,WindSpeedMPH,WindSpeedGustMPH,Humidity,HourlyPrecipIn,Conditions,Clouds,dailyrainin,SoftwareType,DateUTC
2013-05-02 00:01:00,62.6,54.6,29.44,SSE,150,0.0,1.0,75,0.00,,---,0.00,VWS V14.00,2013-05-02 05:01:00,
2013-05-02 00:06:00,62.4,54.8,29.44,SSE,150,0.0,1.0,76,0.00,,---,0.00,VWS V14.00,2013-05-02 05:06:00,
2013-05-02 00:11:00,62.2,55.0,29.44,SSE,150,0.0,1.0,77,0.00,,---,0.00,VWS V14.00,2013-05-02 05:11:00,
2013-05-02 00:16:00,62.2,55.0,29.44,SSE,150,0.0,1.0,77,0.00,,---,0.00,VWS V14.00,2013-05-02 05:16:00,
2013-05-02 00:21:00,62.1,55.1,29.44,SSE,150,0.0,1.0,78,0.00,,---,0.00,VWS V14.00,2013-05-02 05:21:00,
2013-05-02 00:26:00,62.1,55.1,29.44,SSE,150,0.0,1.0,78,0.00,,---,0.00,VWS V14.00,2013-05-02 05:26:00,
2013-05-02 00:31:00,62.1,55.1,29.44,SSE,150,0.0,1.0,78,0.00,,---,0.00,VWS V14.00,2013-05-02 05:31:00,
2013-05-02 00:36:00,62.1,55.5,29.44,SSE,150,0.0,1.0,79,0.00,,---,0.00,VWS V14.00,2013-05-02 05:36:00,
2013-05-02 00:41:00,61.9,55.7,29.44,SSE,150,0.0,1.0,80,0.00,,---,0.00,VWS V14.00,2013-05-02 05:41:00,
2013-05-02 00:46:00,61.9,55.7,29.44,SSE,150,0.0,1.0,80,0.00,,---,0.00,VWS V14.00,2013-05-02 05:46:00,
2013-05-02 00:51:00,61.9,56.0,29.44,SSE,150,0.0,1.0,81,0.00,,---,0.00,VWS V14.00,2013-05-02 05:51:00,
2013-05-02 00:56:00,61.9,56.0,29.44,SSE,150,0.0,1.0,81,0.00,,---,0.00,VWS V14.00,2013-05-02 05:56:00,
2013-05-02 01:01:00,61.9,56.0,29.44,SSE,150,0.0,1.0,81,0.00,,---,0.00,VWS V14.00,2013-05-02 06:01:00,
2013-05-02 01:06:00,61.9,56.0,29.44,SSE,150,0.0,1.0,81,0.00,,---,0.00,VWS V14.00,2013-05-02 06:06:00,
2013-05-02 01:11:00,62.1,56.2,29.44,SSE,150,0.0,1.0,81,0.00,,---,0.00,VWS V14.00,2013-05-02 06:11:00,
2013-05-02 01:16:00,62.1,56.5,29.44,SSE,150,0.0,1.0,82,0.00,,---,0.00,VWS V14.00,2013-05-02 06:16:00,
2013-05-02 01:21:00,62.1,56.5,29.44,SSE,150,0.0,1.0,82,0.00,,---,0.00,VWS V14.00,2013-05-02 06:21:00,
2013-05-02 01:26:00,62.2,56.7,29.44,SSE,150,0.0,1.0,82,0.00,,---,0.00,VWS V14.00,2013-05-02 06:26:00,
2013-05-02 01:31:00,62.2,56.7,29.44,SSE,153,0.0,1.0,82,0.00,,---,0.00,VWS V14.00,2013-05-02 06:31:00,
2013-05-02 01:36:00,62.2,56.7,29.44,SSE,153,0.0,1.0,82,0.00,,---,0.00,VWS V14.00,2013-05-02 06:36:00,
2013-05-02 01:41:00,62.1,56.5,29.44,SSE,153,0.0,1.0,82,0.00,,---,0.00,VWS V14.00,2013-05-02 06:41:00,
2013-05-02 01:46:00,61.9,56.0,29.44,SSE,153,0.0,1.0,81,0.00,,---,0.00,VWS V14.00,2013-05-02 06:46:00,
2013-05-02 01:51:00,61.9,56.0,29.44,SSE,153,0.0,1.0,81,0.00,,---,0.00,VWS V14.00,2013-05-02 06:51:00,
2013-05-02 01:56:00,61.9,56.0,29.44,SSE,153,0.0,1.0,81,0.00,,---,0.00,VWS V14.00,2013-05-02 06:56:00,
2013-05-02 02:01:00,61.9,56.0,29.44,SSE,153,0.0,1.0,81,0.00,,---,0.00,VWS V14.00,2013-05-02 07:01:00,
2013-05-02 02:06:00,61.9,55.7,29.44,SSE,154,0.0,1.0,80,0.00,,---,0.00,VWS V14.00,2013-05-02 07:06:00,
2013-05-02 02:11:00,61.9,55.7,29.44,SSE,153,0.0,1.0,80,0.00,,---,0.00,VWS V14.00,2013-05-02 07:11:00,
2013-05-02 02:16:00,61.7,55.5,29.44,SSE,153,0.0,1.0,80,0.00,,---,0.00,VWS V14.00,2013-05-02 07:16:00,
2013-05-02 02:21:00,61.5,55.0,29.44,SSE,153,0.0,1.0,79,0.00,,---,0.00,VWS V14.00,2013-05-02 07:21:00,
2013-05-02 02:26:00,61.5,55.0,29.44,SSE,153,0.0,1.0,79,0.00,,---,0.00,VWS V14.00,2013-05-02 07:26:00,
2013-05-02 02:31:00,61.3,54.8,29.44,SSE,153,0.0,1.0,79,0.00,,---,0.00,VWS V14.00,2013-05-02 07:31:00,
2013-05-02 02:36:00,61.3,54.8,29.44,SSE,153,0.0,1.0,79,0.00,,---,0.00,VWS V14.00,2013-05-02 07:36:00,
2013-05-02 02:41:00,61.3,54.8,29.44,SSE,153,0.0,1.0,79,0.00,,---,0.00,VWS V14.00,2013-05-02 07:41:00,
2013-05-02 02:46:00,61.3,55.1,29.44,South,188,0.0,1.0,80,0.00,,---,0.00,VWS V14.00,2013-05-02 07:46:00,
2013-05-02 02:51:00,61.3,55.1,29.44,SW,216,0.0,1.0,80,0.00,,---,0.00,VWS V14.00,2013-05-02 07:51:00,
2013-05-02 02:56:00,61.5,55.3,29.44,SSE,159,0.0,1.0,80,0.00,,---,0.00,VWS V14.00,2013-05-02 07:56:00,
2013-05-02 03:01:00,61.7,55.5,29.44,SSE,159,0.0,1.0,80,0.00,,---,0.00,VWS V14.00,2013-05-02 08:01:00,
2013-05-02 03:06:00,61.7,55.5,29.44,SSE,159,0.0,1.0,80,0.00,,---,0.00,VWS V14.00,2013-05-02 08:06:00,
2013-05-02 03:11:00,61.5,55.3,29.44,SSE,159,0.0,1.0,80,0.00,,---,0.00,VWS V14.00,2013-05-02 08:11:00,
2013-05-02 03:16:00,61.5,55.0,29.44,SSE,159,0.0,1.0,79,0.00,,---,0.00,VWS V14.00,2013-05-02 08:16:00,
2013-05-02 03:21:00,61.5,55.0,29.44,SSE,159,0.0,1.0,79,0.00,,---,0.00,VWS V14.00,2013-05-02 08:21:00,
2013-05-02 03:26:00,61.3,54.8,29.44,SSE,159,0.0,1.0,79,0.00,,---,0.00,VWS V14.00,2013-05-02 08:26:00,
2013-05-02 03:31:00,61.3,54.8,29.44,SSE,159,0.0,1.0,79,0.00,,---,0.00,VWS V14.00,2013-05-02 08:31:00,
2013-05-02 03:36:00,61.0,54.4,29.44,SSE,159,0.0,1.0,79,0.00,,---,0.00,VWS V14.00,2013-05-02 08:36:00,
2013-05-02 03:41:00,60.8,54.3,29.44,SSE,159,0.0,1.0,79,0.00,,---,0.00,VWS V14.00,2013-05-02 08:41:00,
2013-05-02 03:46:00,60.8,54.3,29.44,SSE,159,0.0,1.0,79,0.00,,---,0.00,VWS V14.00,2013-05-02 08:46:00,
2013-05-02 03:51:00,60.6,54.4,29.44,SSE,159,0.0,1.0,80,0.00,,---,0.00,VWS V14.00,2013-05-02 08:51:00,
2013-05-02 03:56:00,60.6,54.4,29.44,SSE,159,0.0,1.0,80,0.00,,---,0.00,VWS V14.00,2013-05-02 08:56:00,
2013-05-02 04:01:00,60.4,54.2,29.44,SSE,159,0.0,1.0,80,0.00,,---,0.00,VWS V14.00,2013-05-02 09:01:00,
2013-05-02 04:06:00,60.4,54.2,29.44,SSE,159,0.0,1.0,80,0.00,,---,0.00,VWS V14.00,2013-05-02 09:06:00,
2013-05-02 04:11:00,60.3,54.1,29.44,SSE,159,0.0,1.0,80,0.00,,---,0.00,VWS V14.00,2013-05-02 09:11:00,
2013-05-02 04:16:00,60.3,54.1,29.44,SSE,159,0.0,1.0,80,0.00,,---,0.00,VWS V14.00,2013-05-02 09:16:00,
2013-05-02 04:21:00,60.1,53.9,29.44,SSE,159,0.0,1.0,80,0.00,,---,0.00,VWS V14.00,2013-05-02 09:21:00,
2013-05-02 04:26:00,59.9,53.7,29.44,SSE,159,0.0,1.0,80,0.00,,---,0.00,VWS V14.00,2013-05-02 09:26:00,
2013-05-02 04:31:00,59.7,53.5,29.44,SSE,159,0.0,1.0,80,0.00,,---,0.00,VWS V14.00,2013-05-02 09:31:00,
2013-05-02 04:36:00,59.7,53.9,29.44,SSE,159,0.0,1.0,81,0.00,,---,0.00,VWS V14.00,2013-05-02 09:36:00,
2013-05-02 04:41:00,59.7,53.9,29.44,SSE,159,0.0,1.0,81,0.00,,---,0.00,VWS V14.00,2013-05-02 09:41:00,
2013-05-02 04:46:00,59.4,53.5,29.44,SSE,159,0.0,1.0,81,0.00,,---,0.00,VWS V14.00,2013-05-02 09:46:00,
2013-05-02 04:51:00,59.4,53.5,29.44,SSE,159,0.0,1.0,81,0.00,,---,0.00,VWS V14.00,2013-05-02 09:51:00,
2013-05-02 04:56:00,59.4,53.5,29.44,SSE,159,0.0,1.0,81,0.00,,---,0.00,VWS V14.00,2013-05-02 09:56:00,
2013-05-02 05:01:00,59.2,53.7,29.44,SSE,159,0.0,1.0,82,0.00,,---,0.00,VWS V14.00,2013-05-02 10:01:00,
2013-05-02 05:06:00,59.4,53.9,29.44,SSE,163,4.0,7.4,82,0.00,,---,0.00,VWS V14.00,2013-05-02 10:06:00,
2013-05-02 05:11:00,59.4,53.9,29.44,SSE,163,0.0,1.0,82,0.00,,---,0.00,VWS V14.00,2013-05-02 10:11:00,
2013-05-02 05:16:00,59.4,53.9,29.44,SSE,163,0.0,1.0,82,0.00,,---,0.00,VWS V14.00,2013-05-02 10:16:00,
2013-05-02 05:21:00,59.5,54.0,29.44,SSE,163,0.0,1.0,82,0.00,,---,0.00,VWS V14.00,2013-05-02 10:21:00,
2013-05-02 05:26:00,59.4,53.9,29.44,SSE,163,0.0,1.0,82,0.00,,---,0.00,VWS V14.00,2013-05-02 10:26:00,
2013-05-02 05:31:00,59.2,53.7,29.44,SSE,163,0.0,1.0,82,0.00,,---,0.00,VWS V14.00,2013-05-02 10:31:00,
2013-05-02 05:36:00,59.2,53.7,29.44,SSE,163,0.0,1.0,82,0.00,,---,0.00,VWS V14.00,2013-05-02 10:36:00,
2013-05-02 05:41:00,59.0,53.5,29.44,SSE,163,0.0,1.0,82,0.00,,---,0.00,VWS V14.00,2013-05-02 10:41:00,
2013-05-02 05:46:00,59.0,53.5,29.47,SSE,163,0.0,1.0,82,0.00,,---,0.00,VWS V14.00,2013-05-02 10:46:00,
2013-05-02 05:51:00,58.8,53.3,29.47,SSE,163,0.0,1.0,82,0.00,,---,0.00,VWS V14.00,2013-05-02 10:51:00,
2013-05-02 05:56:00,58.8,53.3,29.47,SSE,163,0.0,1.0,82,0.00,,---,0.00,VWS V14.00,2013-05-02 10:56:00,
2013-05-02 06:01:00,58.8,53.3,29.47,SSE,163,0.0,1.0,82,0.00,,---,0.00,VWS V14.00,2013-05-02 11:01:00,
2013-05-02 06:06:00,58.8,53.7,29.47,SSE,163,0.0,1.0,83,0.00,,---,0.00,VWS V14.00,2013-05-02 11:06:00,
2013-05-02 06:11:00,58.8,53.7,29.47,SSE,163,0.0,1.0,83,0.00,,---,0.00,VWS V14.00,2013-05-02 11:11:00,
2013-05-02 06:16:00,58.5,53.3,29.47,SSE,163,0.0,1.0,83,0.00,,---,0.00,VWS V14.00,2013-05-02 11:16:00,
2013-05-02 06:21:00,58.1,53.0,29.47,SSE,163,0.0,1.0,83,0.00,,---,0.00,VWS V14.00,2013-05-02 11:21:00,
2013-05-02 06:26:00,57.7,52.6,29.47,SSE,163,0.0,1.0,83,0.00,,---,0.00,VWS V14.00,2013-05-02 11:26:00,
2013-05-02 06:31:00,57.6,52.4,29.47,SSE,163,0.0,1.0,83,0.00,,---,0.00,VWS V14.00,2013-05-02 11:31:00,
2013-05-02 06:36:00,57.7,52.6,29.47,SSE,163,0.0,1.0,83,0.00,,---,0.00,VWS V14.00,2013-05-02 11:36:00,
2013-05-02 06:41:00,57.9,52.8,29.47,SSE,163,0.0,1.0,83,0.00,,---,0.00,VWS V14.00,2013-05-02 11:41:00,
2013-05-02 06:46:00,58.1,53.3,29.47,SSE,163,0.0,1.0,84,0.00,,---,0.00,VWS V14.00,2013-05-02 11:46:00,
2013-05-02 06:51:00,58.5,53.7,29.47,SSE,163,0.0,1.0,84,0.00,,---,0.00,VWS V14.00,2013-05-02 11:51:00,
2013-05-02 06:56:00,58.6,53.8,29.47,SSE,163,0.0,1.0,84,0.00,,---,0.00,VWS V14.00,2013-05-02 11:56:00,
2013-05-02 07:01:00,59.0,54.2,29.47,SSE,163,0.0,1.0,84,0.00,,---,0.00,VWS V14.00,2013-05-02 12:01:00,
2013-05-02 07:06:00,59.2,54.4,29.47,SSE,163,0.0,1.0,84,0.00,,---,0.00,VWS V14.00,2013-05-02 12:06:00,
2013-05-02 07:11:00,59.4,54.9,29.47,SSE,163,0.0,1.0,85,0.00,,---,0.00,VWS V14.00,2013-05-02 12:11:00,
2013-05-02 07:16:00,59.7,55.2,29.47,SSE,163,0.0,1.0,85,0.00,,---,0.00,VWS V14.00,2013-05-02 12:16:00,
2013-05-02 07:21:00,60.1,55.6,29.50,SSE,163,0.0,1.0,85,0.00,,---,0.00,VWS V14.00,2013-05-02 12:21:00,
2013-05-02 07:26:00,60.4,55.9,29.50,SSE,163,0.0,1.0,85,0.00,,---,0.00,VWS V14.00,2013-05-02 12:26:00,
2013-05-02 07:31:00,60.8,56.3,29.50,SSE,163,0.0,1.0,85,0.00,,---,0.00,VWS V14.00,2013-05-02 12:31:00,
2013-05-02 07:36:00,61.0,56.5,29.50,SSE,162,0.0,1.0,85,0.00,,---,0.00,VWS V14.00,2013-05-02 12:36:00,
2013-05-02 07:41:00,61.5,57.0,29.50,SSE,149,0.0,1.0,85,0.00,,---,0.00,VWS V14.00,2013-05-02 12:41:00,
2013-05-02 07:46:00,61.9,57.3,29.50,SSE,149,0.0,1.0,85,0.00,,---,0.00,VWS V14.00,2013-05-02 12:46:00,
2013-05-02 07:51:00,62.2,57.7,29.50,SSE,149,0.0,1.0,85,0.00,,---,0.00,VWS V14.00,2013-05-02 12:51:00,
2013-05-02 07:56:00,62.8,57.5,29.50,SE,142,0.0,1.0,83,0.00,,---,0.00,VWS V14.00,2013-05-02 12:56:00,
2013-05-02 08:01:00,63.1,57.6,29.50,SE,125,4.7,6.6,82,0.00,,---,0.00,VWS V14.00,2013-05-02 13:01:00,
2013-05-02 08:06:00,63.5,57.9,29.50,SSE,149,5.4,7.4,82,0.00,,---,0.00,VWS V14.00,2013-05-02 13:06:00,
2013-05-02 08:11:00,63.5,57.9,29.50,ESE,123,3.4,6.6,82,0.00,,---,0.00,VWS V14.00,2013-05-02 13:11:00,
2013-05-02 08:16:00,64.2,56.9,29.50,SSE,147,0.0,1.0,77,0.00,,---,0.00,VWS V14.00,2013-05-02 13:16:00,
2013-05-02 08:21:00,64.2,56.9,29.50,South,169,4.7,6.6,77,0.00,,---,0.00,VWS V14.00,2013-05-02 13:21:00,
2013-05-02 08:26:00,64.6,54.6,29.50,SSE,164,8.7,11.5,70,0.00,,---,0.00,VWS V14.00,2013-05-02 13:26:00,
2013-05-02 08:31:00,64.8,54.8,29.50,SE,146,4.0,6.6,70,0.00,,---,0.00,VWS V14.00,2013-05-02 13:31:00,
2013-05-02 08:36:00,65.1,54.7,29.50,SSW,196,3.4,8.2,69,0.00,,---,0.00,VWS V14.00,2013-05-02 13:36:00,
2013-05-02 08:41:00,65.5,55.0,29.50,SE,140,7.4,9.9,69,0.00,,---,0.00,VWS V14.00,2013-05-02 13:41:00,
2013-05-02 08:46:00,65.8,55.0,29.50,South,172,6.0,9.9,68,0.00,,---,0.00,VWS V14.00,2013-05-02 13:46:00,
2013-05-02 08:51:00,66.0,55.2,29.50,SSE,155,0.0,1.0,68,0.00,,---,0.00,VWS V14.00,2013-05-02 13:51:00,
2013-05-02 08:56:00,66.0,55.2,29.50,SSE,165,4.7,6.6,68,0.00,,---,0.00,VWS V14.00,2013-05-02 13:56:00,
2013-05-02 09:01:00,66.0,54.3,29.50,South,178,0.0,5.8,66,0.00,,---,0.00,VWS V14.00,2013-05-02 14:01:00,
2013-05-02 09:07:00,66.2,54.5,29.50,SSE,166,8.7,11.5,66,0.00,,---,0.00,VWS V14.00,2013-05-02 14:07:00,
2013-05-02 09:12:00,66.2,54.1,29.50,SSE,156,4.7,6.6,65,0.00,,---,0.00,VWS V14.00,2013-05-02 14:12:00,
2013-05-02 09:17:00,66.4,54.3,29.50,South,170,4.7,6.6,65,0.00,,---,0.00,VWS V14.00,2013-05-02 14:17:00,
2013-05-02 09:22:00,66.6,54.0,29.50,South,178,5.4,7.4,64,0.00,,---,0.00,VWS V14.00,2013-05-02 14:22:00,
2013-05-02 09:27:00,66.9,54.4,29.50,South,173,4.7,6.6,64,0.00,,---,0.00,VWS V14.00,2013-05-02 14:27:00,
2013-05-02 09:32:00,67.1,54.1,29.50,SE,145,0.0,6.6,63,0.00,,---,0.00,VWS V14.00,2013-05-02 14:32:00,
2013-05-02 09:37:00,67.1,53.7,29.50,SSE,165,8.7,11.5,62,0.00,,---,0.00,VWS V14.00,2013-05-02 14:37:00,
2013-05-02 09:42:00,67.3,53.4,29.50,SSE,158,0.0,1.0,61,0.00,,---,0.00,VWS V14.00,2013-05-02 14:42:00,
2013-05-02 09:47:00,67.5,53.6,29.50,SSE,166,6.0,8.2,61,0.00,,---,0.00,VWS V14.00,2013-05-02 14:47:00,
2013-05-02 09:52:00,67.8,53.9,29.50,South,178,4.7,9.9,61,0.00,,---,0.00,VWS V14.00,2013-05-02 14:52:00,
2013-05-02 09:57:00,67.8,53.0,29.50,SSE,159,0.0,10.7,59,0.00,,---,0.00,VWS V14.00,2013-05-02 14:57:00,
2013-05-02 10:02:00,67.8,53.4,29.50,SSE,159,8.1,10.7,60,0.00,,---,0.00,VWS V14.00,2013-05-02 15:02:00,
2013-05-02 10:07:00,68.0,53.6,29.50,South,179,4.7,6.6,60,0.00,,---,0.00,VWS V14.00,2013-05-02 15:07:00,
2013-05-02 10:12:00,68.0,53.2,29.50,SSE,153,7.4,10.7,59,0.00,,---,0.00,VWS V14.00,2013-05-02 15:12:00,
2013-05-02 10:17:00,68.2,53.8,29.50,SSE,153,0.0,1.0,60,0.00,,---,0.00,VWS V14.00,2013-05-02 15:17:00,
2013-05-02 10:22:00,68.2,53.8,29.50,South,171,0.0,1.0,60,0.00,,---,0.00,VWS V14.00,2013-05-02 15:22:00,
2013-05-02 10:27:00,68.2,53.8,29.50,South,185,0.0,1.0,60,0.00,,---,0.00,VWS V14.00,2013-05-02 15:27:00,
2013-05-02 10:32:00,68.4,54.0,29.50,South,170,0.0,1.0,60,0.00,,---,0.00,VWS V14.00,2013-05-02 15:32:00,
2013-05-02 10:37:00,68.5,54.1,29.50,SE,128,0.0,1.0,60,0.00,,---,0.00,VWS V14.00,2013-05-02 15:37:00,
2013-05-02 10:42:00,68.7,54.3,29.50,South,177,0.0,1.0,60,0.00,,---,0.00,VWS V14.00,2013-05-02 15:42:00,
2013-05-02 10:47:00,68.9,54.5,29.50,SE,138,3.4,5.8,60,0.00,,---,0.00,VWS V14.00,2013-05-02 15:47:00,
2013-05-02 10:52:00,69.1,54.6,29.50,South,187,4.0,7.4,60,0.00,,---,0.00,VWS V14.00,2013-05-02 15:52:00,
2013-05-02 10:57:00,69.1,54.6,29.50,South,174,8.7,11.5,60,0.00,,---,0.00,VWS V14.00,2013-05-02 15:57:00,
2013-05-02 11:02:00,69.3,54.3,29.50,South,180,3.4,5.0,59,0.00,,---,0.00,VWS V14.00,2013-05-02 16:02:00,
2013-05-02 11:07:00,69.3,53.9,29.50,SSE,167,0.0,6.6,58,0.00,,---,0.00,VWS V14.00,2013-05-02 16:07:00,
2013-05-02 11:12:00,69.3,54.3,29.50,SE,138,5.4,7.4,59,0.00,,---,0.00,VWS V14.00,2013-05-02 16:12:00,
2013-05-02 11:17:00,69.4,54.5,29.50,SW,215,0.0,1.0,59,0.00,,---,0.00,VWS V14.00,2013-05-02 16:17:00,
2013-05-02 11:22:00,69.4,54.5,29.50,South,171,0.0,7.4,59,0.00,,---,0.00,VWS V14.00,2013-05-02 16:22:00,
2013-05-02 11:27:00,69.6,54.2,29.50,SSW,194,0.0,1.0,58,0.00,,---,0.00,VWS V14.00,2013-05-02 16:27:00,
2013-05-02 11:32:00,69.8,53.9,29.50,SSE,157,3.4,5.0,57,0.00,,---,0.00,VWS V14.00,2013-05-02 16:32:00,
2013-05-02 11:37:00,69.8,54.4,29.50,WSW,256,0.0,1.0,58,0.00,,---,0.00,VWS V14.00,2013-05-02 16:37:00,
2013-05-02 11:42:00,69.8,54.8,29.50,SSW,204,0.0,1.0,59,0.00,,---,0.00,VWS V14.00,2013-05-02 16:42:00,
2013-05-02 11:47:00,69.8,54.4,29.50,SE,137,0.0,1.0,58,0.00,,---,0.00,VWS V14.00,2013-05-02 16:47:00,
2013-05-02 11:52:00,70.2,54.2,29.50,SSE,152,4.7,6.6,57,0.00,,---,0.00,VWS V14.00,2013-05-02 16:52:00,
2013-05-02 11:57:00,70.2,54.2,29.50,SE,133,4.7,7.4,57,0.00,,---,0.00,VWS V14.00,2013-05-02 16:57:00,
2013-05-02 12:02:00,70.2,53.8,29.50,SSE,151,4.7,6.6,56,0.00,,---,0.00,VWS V14.00,2013-05-02 17:02:00,
2013-05-02 12:07:00,70.2,53.8,29.50,East,101,4.7,6.6,56,0.00,,---,0.00,VWS V14.00,2013-05-02 17:07:00,
2013-05-02 12:12:00,70.2,53.3,29.50,ESE,112,4.7,6.6,55,0.00,,---,0.00,VWS V14.00,2013-05-02 17:12:00,
2013-05-02 12:17:00,70.2,53.3,29.50,SSE,153,0.0,5.0,55,0.00,,---,0.00,VWS V14.00,2013-05-02 17:17:00,
2013-05-02 12:22:00,70.5,54.1,29.50,SE,140,4.0,5.8,56,0.00,,---,0.00,VWS V14.00,2013-05-02 17:22:00,
2013-05-02 12:27:00,70.7,53.8,29.50,SSE,168,5.4,7.4,55,0.00,,---,0.00,VWS V14.00,2013-05-02 17:27:00,
2013-05-02 12:32:00,70.5,53.6,29.50,SSE,166,0.0,1.0,55,0.00,,---,0.00,VWS V14.00,2013-05-02 17:32:00,
2013-05-02 12:37:00,70.5,53.6,29.50,SSE,165,0.0,1.0,55,0.00,,---,0.00,VWS V14.00,2013-05-02 17:37:00,
2013-05-02 12:42:00,70.5,53.6,29.50,WSW,241,0.0,1.0,55,0.00,,---,0.00,VWS V14.00,2013-05-02 17:42:00,
2013-05-02 12:47:00,70.7,54.2,29.47,SSE,157,4.7,6.6,56,0.00,,---,0.00,VWS V14.00,2013-05-02 17:47:00,
2013-05-02 12:52:00,70.9,54.4,29.47,SSE,159,0.0,1.0,56,0.00,,---,0.00,VWS V14.00,2013-05-02 17:52:00,
2013-05-02 12:57:00,71.1,54.1,29.47,SSE,147,4.0,5.8,55,0.00,,---,0.00,VWS V14.00,2013-05-02 17:57:00,
2013-05-02 13:02:00,71.1,54.1,29.47,SW,231,0.0,1.0,55,0.00,,---,0.00,VWS V14.00,2013-05-02 18:02:00,
2013-05-02 13:07:00,70.9,53.9,29.47,WSW,250,0.0,5.0,55,0.00,,---,0.00,VWS V14.00,2013-05-02 18:07:00,
2013-05-02 13:12:00,70.9,53.9,29.47,NNW,339,3.4,5.0,55,0.00,,---,0.00,VWS V14.00,2013-05-02 18:12:00,
2013-05-02 13:17:00,71.1,54.6,29.47,NE,43,4.7,7.4,56,0.00,,---,0.00,VWS V14.00,2013-05-02 18:17:00,
2013-05-02 13:22:00,71.1,54.6,29.47,NNE,20,0.0,1.0,56,0.00,,---,0.00,VWS V14.00,2013-05-02 18:22:00,
2013-05-02 13:27:00,71.2,54.3,29.47,North,1,0.0,1.0,55,0.00,,---,0.00,VWS V14.00,2013-05-02 18:27:00,
2013-05-02 13:32:00,71.4,53.9,29.47,NE,56,0.0,1.0,54,0.00,,---,0.00,VWS V14.00,2013-05-02 18:32:00,
2013-05-02 13:37:00,71.4,53.9,29.47,North,5,0.0,1.0,54,0.00,,---,0.00,VWS V14.00,2013-05-02 18:37:00,
2013-05-02 13:42:00,71.8,54.3,29.47,SSE,155,7.4,9.9,54,0.00,,---,0.00,VWS V14.00,2013-05-02 18:42:00,
2013-05-02 13:47:00,71.6,52.5,29.47,NE,42,3.4,5.8,51,0.00,,---,0.00,VWS V14.00,2013-05-02 18:47:00,
2013-05-02 13:52:00,71.8,53.8,29.47,ENE,69,0.0,1.0,53,0.00,,---,0.00,VWS V14.00,2013-05-02 18:52:00,
2013-05-02 13:57:00,72.0,54.4,29.47,SSW,207,0.0,5.8,54,0.00,,---,0.00,VWS V14.00,2013-05-02 18:57:00,
2013-05-02 14:02:00,71.8,54.3,29.47,South,174,5.4,7.4,54,0.00,,---,0.00,VWS V14.00,2013-05-02 19:02:00,
2013-05-02 14:07:00,71.8,53.2,29.47,South,190,0.0,5.0,52,0.00,,---,0.00,VWS V14.00,2013-05-02 19:07:00,
2013-05-02 14:12:00,71.8,53.2,29.47,South,191,0.0,1.0,52,0.00,,---,0.00,VWS V14.00,2013-05-02 19:12:00,
2013-05-02 14:17:00,71.8,53.2,29.47,ESE,109,0.0,1.0,52,0.00,,---,0.00,VWS V14.00,2013-05-02 19:17:00,
2013-05-02 14:22:00,72.0,53.4,29.47,ENE,64,0.0,1.0,52,0.00,,---,0.00,VWS V14.00,2013-05-02 19:22:00,
2013-05-02 14:27:00,72.3,53.7,29.47,NNW,344,4.7,6.6,52,0.00,,---,0.00,VWS V14.00,2013-05-02 19:27:00,
2013-05-02 14:32:00,72.5,54.4,29.47,ENE,73,4.0,5.8,53,0.00,,---,0.00,VWS V14.00,2013-05-02 19:32:00,
2013-05-02 14:37:00,72.9,54.8,29.44,ENE,74,3.4,5.0,53,0.00,,---,0.00,VWS V14.00,2013-05-02 19:37:00,
2013-05-02 14:42:00,73.0,53.9,29.44,SSE,165,4.7,6.6,51,0.00,,---,0.00,VWS V14.00,2013-05-02 19:42:00,
2013-05-02 14:47:00,73.0,53.9,29.44,SE,139,6.0,8.2,51,0.00,,---,0.00,VWS V14.00,2013-05-02 19:47:00,
2013-05-02 14:52:00,73.4,54.2,29.44,SE,146,4.7,6.6,51,0.00,,---,0.00,VWS V14.00,2013-05-02 19:52:00,
2013-05-02 14:57:00,73.8,54.0,29.44,SSE,158,4.0,5.8,50,0.00,,---,0.00,VWS V14.00,2013-05-02 19:57:00,
2013-05-02 15:02:00,73.6,53.3,29.44,ENE,70,4.0,8.2,49,0.00,,---,0.00,VWS V14.00,2013-05-02 20:02:00,
2013-05-02 15:07:00,73.2,53.5,29.44,NNE,15,4.7,6.6,50,0.00,,---,0.00,VWS V14.00,2013-05-02 20:07:00,
2013-05-02 15:12:00,73.2,52.9,29.44,ENE,69,3.4,5.0,49,0.00,,---,0.00,VWS V14.00,2013-05-02 20:12:00,
2013-05-02 15:17:00,73.0,53.3,29.44,ESE,117,6.0,8.2,50,0.00,,---,0.00,VWS V14.00,2013-05-02 20:17:00,
2013-05-02 15:22:00,72.9,52.6,29.44,ESE,110,0.0,6.6,49,0.00,,---,0.00,VWS V14.00,2013-05-02 20:22:00,
2013-05-02 15:27:00,72.9,52.6,29.44,ESE,106,0.0,1.0,49,0.00,,---,0.00,VWS V14.00,2013-05-02 20:27:00,
2013-05-02 15:32:00,72.9,52.0,29.44,SE,134,8.1,10.7,48,0.00,,---,0.00,VWS V14.00,2013-05-02 20:32:00,
2013-05-02 15:37:00,72.9,52.0,29.41,SSE,155,4.0,7.4,48,0.00,,---,0.00,VWS V14.00,2013-05-02 20:37:00,
2013-05-02 15:42:00,73.0,53.3,29.41,SSE,150,4.0,6.6,50,0.00,,---,0.00,VWS V14.00,2013-05-02 20:42:00,
2013-05-02 15:47:00,73.0,53.3,29.41,East,100,0.0,1.0,50,0.00,,---,0.00,VWS V14.00,2013-05-02 20:47:00,
2013-05-02 15:52:00,73.0,53.3,29.41,East,79,0.0,5.0,50,0.00,,---,0.00,VWS V14.00,2013-05-02 20:52:00,
2013-05-02 15:57:00,73.0,53.3,29.41,ESE,105,0.0,1.0,50,0.00,,---,0.00,VWS V14.00,2013-05-02 20:57:00,
2013-05-02 16:02:00,73.2,53.5,29.41,ESE,118,4.7,6.6,50,0.00,,---,0.00,VWS V14.00,2013-05-02 21:02:00,
2013-05-02 16:07:00,73.2,53.5,29.41,SSE,152,0.0,1.0,50,0.00,,---,0.00,VWS V14.00,2013-05-02 21:07:00,
2013-05-02 16:12:00,73.4,53.7,29.41,East,89,6.0,8.2,50,0.00,,---,0.00,VWS V14.00,2013-05-02 21:12:00,
2013-05-02 16:17:00,73.6,53.3,29.41,ENE,60,3.4,5.0,49,0.00,,---,0.00,VWS V14.00,2013-05-02 21:17:00,
2013-05-02 16:22:00,73.4,53.7,29.41,SE,142,0.0,1.0,50,0.00,,---,0.00,VWS V14.00,2013-05-02 21:22:00,
2013-05-02 16:27:00,73.4,53.7,29.41,SE,142,0.0,1.0,50,0.00,,---,0.00,VWS V14.00,2013-05-02 21:27:00,
2013-05-02 16:32:00,73.8,54.0,29.41,SE,141,7.4,9.9,50,0.00,,---,0.00,VWS V14.00,2013-05-02 21:32:00,
2013-05-02 16:37:00,73.6,52.7,29.41,SSE,149,4.7,8.2,48,0.00,,---,0.00,VWS V14.00,2013-05-02 21:37:00,
2013-05-02 16:42:00,73.6,53.3,29.41,SE,146,4.0,8.2,49,0.00,,---,0.00,VWS V14.00,2013-05-02 21:42:00,
2013-05-02 16:47:00,73.9,53.6,29.41,SE,145,3.4,5.0,49,0.00,,---,0.00,VWS V14.00,2013-05-02 21:47:00,
2013-05-02 16:52:00,73.9,53.6,29.41,SE,145,4.7,6.6,49,0.00,,---,0.00,VWS V14.00,2013-05-02 21:52:00,
2013-05-02 16:57:00,73.9,53.0,29.41,ESE,110,0.0,1.0,48,0.00,,---,0.00,VWS V14.00,2013-05-02 21:57:00,
2013-05-02 17:02:00,73.6,52.7,29.41,SE,145,4.0,6.6,48,0.00,,---,0.00,VWS V14.00,2013-05-02 22:02:00,
2013-05-02 17:07:00,73.4,53.1,29.38,SSE,154,4.7,6.6,49,0.00,,---,0.00,VWS V14.00,2013-05-02 22:07:00,
2013-05-02 17:12:00,73.4,53.7,29.38,SE,125,0.0,6.6,50,0.00,,---,0.00,VWS V14.00,2013-05-02 22:12:00,
2013-05-02 17:17:00,73.2,53.5,29.41,SE,139,3.4,8.2,50,0.00,,---,0.00,VWS V14.00,2013-05-02 22:17:00,
2013-05-02 17:22:00,73.2,53.5,29.41,SE,135,0.0,1.0,50,0.00,,---,0.00,VWS V14.00,2013-05-02 22:22:00,
2013-05-02 17:27:00,73.2,53.5,29.41,SE,136,0.0,1.0,50,0.00,,---,0.00,VWS V14.00,2013-05-02 22:27:00,
2013-05-02 17:32:00,73.2,53.5,29.41,SE,136,0.0,1.0,50,0.00,,---,0.00,VWS V14.00,2013-05-02 22:32:00,
2013-05-02 17:37:00,73.4,53.7,29.38,SE,136,0.0,1.0,50,0.00,,---,0.00,VWS V14.00,2013-05-02 22:37:00,
2013-05-02 17:42:00,73.4,54.7,29.38,SE,136,0.0,1.0,52,0.00,,---,0.00,VWS V14.00,2013-05-02 22:42:00,
2013-05-02 17:47:00,73.4,54.2,29.38,SE,136,0.0,1.0,51,0.00,,---,0.00,VWS V14.00,2013-05-02 22:47:00,
2013-05-02 17:52:00,73.4,54.2,29.38,NNE,20,5.4,7.4,51,0.00,,---,0.00,VWS V14.00,2013-05-02 22:52:00,
2013-05-02 17:57:00,73.2,55.1,29.38,NNE,28,0.0,1.0,53,0.00,,---,0.00,VWS V14.00,2013-05-02 22:57:00,
2013-05-02 18:02:00,73.0,54.9,29.38,NNE,18,4.0,5.8,53,0.00,,---,0.00,VWS V14.00,2013-05-02 23:02:00,
2013-05-02 18:07:00,72.7,55.1,29.38,NNE,18,5.4,7.4,54,0.00,,---,0.00,VWS V14.00,2013-05-02 23:07:00,
2013-05-02 18:12:00,72.5,55.9,29.38,NNE,18,4.0,5.8,56,0.00,,---,0.00,VWS V14.00,2013-05-02 23:12:00,
2013-05-02 18:17:00,72.3,55.3,29.38,North,2,3.4,5.0,55,0.00,,---,0.00,VWS V14.00,2013-05-02 23:17:00,
2013-05-02 18:22:00,72.3,55.3,29.38,North,2,4.0,5.8,55,0.00,,---,0.00,VWS V14.00,2013-05-02 23:22:00,
2013-05-02 18:27:00,72.1,55.6,29.38,NNE,13,5.4,7.4,56,0.00,,---,0.00,VWS V14.00,2013-05-02 23:27:00,
2013-05-02 18:32:00,71.8,56.2,29.38,NNE,13,4.0,5.8,58,0.00,,---,0.00,VWS V14.00,2013-05-02 23:32:00,
2013-05-02 18:37:00,71.8,56.7,29.38,NNE,13,0.0,1.0,59,0.00,,---,0.00,VWS V14.00,2013-05-02 23:37:00,
2013-05-02 18:42:00,71.6,56.1,29.38,NNE,13,0.0,1.0,58,0.00,,---,0.00,VWS V14.00,2013-05-02 23:42:00,
2013-05-02 18:47:00,71.2,57.1,29.38,NNE,13,0.0,1.0,61,0.00,,---,0.00,VWS V14.00,2013-05-02 23:47:00,
2013-05-02 18:52:00,70.9,57.7,29.38,NNE,13,0.0,1.0,63,0.00,,---,0.00,VWS V14.00,2013-05-02 23:52:00,
2013-05-02 18:57:00,70.7,57.9,29.38,NNE,13,0.0,1.0,64,0.00,,---,0.00,VWS V14.00,2013-05-02 23:57:00,
2013-05-02 19:02:00,70.5,57.8,29.38,NNE,13,0.0,1.0,64,0.00,,---,0.00,VWS V14.00,2013-05-03 00:02:00,
2013-05-02 19:07:00,70.3,57.2,29.38,NNE,13,0.0,1.0,63,0.00,,---,0.00,VWS V14.00,2013-05-03 00:07:00,
2013-05-02 19:12:00,70.2,57.0,29.38,NNE,13,0.0,1.0,63,0.00,,---,0.00,VWS V14.00,2013-05-03 00:12:00,
2013-05-02 19:17:00,70.2,56.5,29.38,NNE,13,0.0,1.0,62,0.00,,---,0.00,VWS V14.00,2013-05-03 00:17:00,
2013-05-02 19:22:00,70.0,56.4,29.38,NNE,13,0.0,1.0,62,0.00,,---,0.00,VWS V14.00,2013-05-03 00:22:00,
2013-05-02 19:27:00,69.6,56.5,29.38,North,10,0.0,1.0,63,0.00,,---,0.00,VWS V14.00,2013-05-03 00:27:00,
2013-05-02 19:32:00,69.3,57.0,29.38,North,10,0.0,1.0,65,0.00,,---,0.00,VWS V14.00,2013-05-03 00:32:00,
2013-05-02 19:37:00,69.3,57.4,29.38,North,10,0.0,1.0,66,0.00,,---,0.00,VWS V14.00,2013-05-03 00:37:00,
2013-05-02 19:42:00,69.3,57.0,29.38,North,10,0.0,1.0,65,0.00,,---,0.00,VWS V14.00,2013-05-03 00:42:00,
2013-05-02 19:47:00,69.3,57.4,29.41,South,179,9.4,12.3,66,0.00,,---,0.00,VWS V14.00,2013-05-03 00:47:00,
2013-05-02 19:52:00,69.1,57.3,29.41,SSE,163,7.4,9.9,66,0.00,,---,0.00,VWS V14.00,2013-05-03 00:52:00,
2013-05-02 19:57:00,68.7,57.3,29.41,SE,143,4.7,6.6,67,0.00,,---,0.00,VWS V14.00,2013-05-03 00:57:00,
2013-05-02 20:02:00,67.8,57.7,29.41,SSE,159,6.0,8.2,70,0.43,,---,0.08,VWS V14.00,2013-05-03 01:02:00,
2013-05-02 20:07:00,66.7,57.8,29.41,SE,125,3.4,5.8,73,0.43,,---,0.08,VWS V14.00,2013-05-03 01:07:00,
2013-05-02 20:12:00,65.7,57.2,29.41,WSW,248,5.4,7.4,74,0.43,,---,0.08,VWS V14.00,2013-05-03 01:12:00,
2013-05-02 20:17:00,65.3,57.2,29.41,WSW,251,0.0,1.0,75,0.43,,---,0.08,VWS V14.00,2013-05-03 01:17:00,
2013-05-02 20:22:00,65.1,57.4,29.41,WSW,255,0.0,1.0,76,0.43,,---,0.08,VWS V14.00,2013-05-03 01:22:00,
2013-05-02 20:27:00,64.9,57.6,29.41,SW,224,0.0,1.0,77,0.43,,---,0.08,VWS V14.00,2013-05-03 01:27:00,
2013-05-02 20:32:00,64.8,57.8,29.41,SW,224,0.0,1.0,78,0.43,,---,0.08,VWS V14.00,2013-05-03 01:32:00,
2013-05-02 20:37:00,64.8,57.8,29.41,SW,224,0.0,1.0,78,0.43,,---,0.08,VWS V14.00,2013-05-03 01:37:00,
2013-05-02 20:42:00,64.6,57.9,29.41,SW,224,0.0,1.0,79,0.43,,---,0.08,VWS V14.00,2013-05-03 01:42:00,
2013-05-02 20:47:00,64.4,57.8,29.41,SW,224,0.0,1.0,79,0.43,,---,0.08,VWS V14.00,2013-05-03 01:47:00,
2013-05-02 20:52:00,64.0,57.8,29.41,WSW,241,0.0,1.0,80,0.43,,---,0.08,VWS V14.00,2013-05-03 01:52:00,
2013-05-02 20:57:00,63.9,57.9,29.41,WSW,241,0.0,1.0,81,0.43,,---,0.08,VWS V14.00,2013-05-03 01:57:00,
2013-05-02 21:02:00,63.9,58.3,29.41,WSW,241,0.0,1.0,82,0.43,,---,0.08,VWS V14.00,2013-05-03 02:02:00,
2013-05-02 21:07:00,63.9,58.3,29.41,WSW,241,0.0,1.0,82,0.43,,---,0.08,VWS V14.00,2013-05-03 02:07:00,
2013-05-02 21:12:00,63.9,58.3,29.41,WSW,241,0.0,1.0,82,0.43,,---,0.08,VWS V14.00,2013-05-03 02:12:00,
2013-05-02 21:17:00,63.9,58.6,29.41,WSW,241,0.0,1.0,83,0.43,,---,0.08,VWS V14.00,2013-05-03 02:17:00,
2013-05-02 21:22:00,63.9,58.6,29.41,WSW,241,0.0,1.0,83,0.43,,---,0.08,VWS V14.00,2013-05-03 02:22:00,
2013-05-02 21:27:00,63.9,58.9,29.41,WSW,241,0.0,1.0,84,0.43,,---,0.08,VWS V14.00,2013-05-03 02:27:00,
2013-05-02 21:32:00,63.9,58.9,29.41,WSW,241,0.0,1.0,84,0.43,,---,0.08,VWS V14.00,2013-05-03 02:32:00,
2013-05-02 21:37:00,63.9,58.9,29.41,WSW,241,0.0,1.0,84,0.43,,---,0.08,VWS V14.00,2013-05-03 02:37:00,
2013-05-02 21:42:00,63.9,59.3,29.41,WSW,241,0.0,1.0,85,0.43,,---,0.08,VWS V14.00,2013-05-03 02:42:00,
2013-05-02 21:47:00,63.7,59.1,29.41,WSW,241,0.0,1.0,85,0.43,,---,0.08,VWS V14.00,2013-05-03 02:47:00,
2013-05-02 21:52:00,63.9,59.6,29.41,WSW,241,0.0,1.0,86,0.43,,---,0.08,VWS V14.00,2013-05-03 02:52:00,
2013-05-02 21:57:00,63.7,59.7,29.41,WSW,241,0.0,1.0,87,0.43,,---,0.08,VWS V14.00,2013-05-03 02:57:00,
2013-05-02 22:02:00,63.7,59.7,29.41,WSW,241,0.0,1.0,87,0.43,,---,0.08,VWS V14.00,2013-05-03 03:02:00,
2013-05-02 22:07:00,63.5,59.9,29.41,WSW,241,0.0,1.0,88,0.43,,---,0.08,VWS V14.00,2013-05-03 03:07:00,
2013-05-02 22:12:00,63.5,59.9,29.41,WSW,241,0.0,1.0,88,0.00,,---,0.08,VWS V14.00,2013-05-03 03:12:00,
2013-05-02 22:17:00,63.5,59.9,29.41,WSW,241,0.0,1.0,88,0.00,,---,0.08,VWS V14.00,2013-05-03 03:17:00,
2013-05-02 22:22:00,63.5,60.2,29.41,WSW,241,0.0,1.0,89,0.00,,---,0.08,VWS V14.00,2013-05-03 03:22:00,
2013-05-02 22:27:00,63.3,60.0,29.41,WSW,241,0.0,1.0,89,0.00,,---,0.08,VWS V14.00,2013-05-03 03:27:00,
2013-05-02 22:32:00,63.5,60.2,29.41,WSW,241,0.0,1.0,89,0.00,,---,0.08,VWS V14.00,2013-05-03 03:32:00,
2013-05-02 22:37:00,63.3,60.0,29.41,South,181,0.0,1.0,89,0.00,,---,0.08,VWS V14.00,2013-05-03 03:37:00,
2013-05-02 22:42:00,63.3,60.3,29.41,SE,145,4.7,6.6,90,0.00,,---,0.08,VWS V14.00,2013-05-03 03:42:00,
2013-05-02 22:47:00,63.1,60.2,29.41,SSE,149,3.4,5.0,90,0.00,,---,0.08,VWS V14.00,2013-05-03 03:47:00,
2013-05-02 22:52:00,63.3,60.3,29.41,SSE,149,0.0,1.0,90,0.00,,---,0.08,VWS V14.00,2013-05-03 03:52:00,
2013-05-02 22:57:00,63.3,60.3,29.41,SSE,149,0.0,1.0,90,0.00,,---,0.08,VWS V14.00,2013-05-03 03:57:00,
2013-05-02 23:01:00,63.3,60.3,29.41,SSE,149,0.0,1.0,90,0.00,,---,0.08,VWS V14.00,2013-05-03 04:01:00,
2013-05-02 23:06:00,63.3,60.3,29.41,SSE,149,0.0,1.0,90,0.00,,---,0.08,VWS V14.00,2013-05-03 04:06:00,
2013-05-02 23:11:00,63.5,60.5,29.41,SSE,149,0.0,1.0,90,0.00,,---,0.08,VWS V14.00,2013-05-03 04:11:00,
2013-05-02 23:16:00,63.3,60.3,29.41,SSE,149,0.0,1.0,90,0.00,,---,0.08,VWS V14.00,2013-05-03 04:16:00,
2013-05-02 23:21:00,63.3,60.7,29.38,SSE,149,0.0,1.0,91,0.00,,---,0.08,VWS V14.00,2013-05-03 04:21:00,
2013-05-02 23:26:00,63.3,60.7,29.38,SSE,149,0.0,1.0,91,0.00,,---,0.08,VWS V14.00,2013-05-03 04:26:00,
2013-05-02 23:31:00,63.3,60.7,29.38,SSE,149,0.0,1.0,91,0.00,,---,0.08,VWS V14.00,2013-05-03 04:31:00,
2013-05-02 23:36:00,63.3,60.7,29.38,SSE,149,0.0,1.0,91,0.00,,---,0.08,VWS V14.00,2013-05-03 04:36:00,
2013-05-02 23:41:00,63.3,60.7,29.38,SSE,149,0.0,1.0,91,0.00,,---,0.08,VWS V14.00,2013-05-03 04:41:00,
2013-05-02 23:46:00,63.3,60.7,29.38,SSE,149,0.0,1.0,91,0.00,,---,0.08,VWS V14.00,2013-05-03 04:46:00,
2013-05-02 23:51:00,63.3,60.7,29.38,SSE,149,0.0,1.0,91,0.00,,---,0.08,VWS V14.00,2013-05-03 04:51:00,
2013-05-02 23:56:00,63.3,60.7,29.38,SSE,149,0.0,1.0,91,0.00,,---,0.08,VWS V14.00,2013-05-03 04:56:00,